logo
Rechercher aéroport 
image banner adimage banner adimage banner ad
image banner ad

NVVW - Tanna

Situé à Lenakel, Vanuatu

ICAO - NVVW, IATA - TAH

Données fournies par Airmate  

Information générale

Coordonnées: S19°27'18" E169°13'24"
Élévation : 27 feet MSL.
 
Voir autres Aéroports à Tafea

Données opérationnelles

Special qualification required
Heure actuelle UTC:
Heure actuelle locale:
Météo
METAR: NVVW 152100Z 00000KT 9999 SCT020 25/24 Q1011
TAF: TAF NVVW 151700Z 1518/1618 VRB04KT 9999 BKN020 OVC040 INTER 1518/1524 8000 SHRA SCT010 BKN016 OVC038
Voir NOTAMs / SUP AIP / TFR affectant cet aéroport [VIEW]
Fréquences de communication: [VIEW]

Pistes:

Identifiant RWYQFULongueur (ft)Largeur (ft)SurfaceLDA (ft)
15145°403598ASP
33325°403598ASP

Coordonnées de l'aéroport

Adresse: Lenakel Vanuatu

Vue satellite de NVVW